Погода в Миссуле

США     46°52′17″N   113°59′35″W
темп.,
°C
ветер,
м/с
пор.,
м/с
влажн.,
%
обл.,
%
осадки,
мм/ч
давл.,
гПа
погр.,
м
15 мая, сб
сб1500:00+7всв118115 0.1 101518
03:00+5вюв11922 0.1 101712
06:00+4в11930 0.1 101711
09:00+12св11562 0.0 1016412
12:00+19с22322 0.0 10121968
15:00+21ссз322336 0.0 10103144
18:00+20с33241 0.0 10092422
21:00+12ссз11541 0.0 101112
16 мая, вс
вс1600:00+8вюв00650 0.0 101310
03:00+7юв11710 0.0 101411
06:00+5ююв11760 0.0 101512
09:00+14ююв11470 0.0 1013372
12:00+22сз01251 0.0 10101601
15:00+24ссз12182 0.0 10072249
18:00+23ссв23200 0.0 10061917
21:00+15з014197 0.0 100611
17 мая, пн
пн1700:00+11ю1152100 0.0 100911
03:00+9ю11605 0.0 100911
06:00+8ю11660 0.0 101011
09:00+16ююз12430 0.0 1009371
12:00+24з15281 0.0 10062025
15:00+25з46186 0.0 10032738
18:00+23зсз57255 0.0 10052074
21:00+14зсз12530 0.0 100712
18 мая, вт
вт1800:00+10з11690 0.0 101012
03:00+8юз11715 0.0 101112
06:00+6ююз11720 0.0 101211
09:00+13сз12435 0.0 1011525
12:00+19с243216 0.0 10081801
15:00+23сз27224 0.0 10053033
18:00+20сз66295 0.0 10051465
21:00+13сз38511 0.0 1009325
19 мая, ср
ср1900:00+8сз11741 0.0 101112
03:00+6ссз11840 0.0 101211
06:00+4сз11925 0.0 101311
09:00+11ссз225813 0.0 1010569
12:00+17ссз22415 0.0 10061177
15:00+20ссз433411 0.0 10011872
18:00+11ссв128869 8.9 1005299
21:00+9сз229446 0.0 100553